FW7740 Weather Reports


time (UTC)temp
C
wind
direction
speed
KPH
gust
KPH
rain 1hr
cm
rain 24hr
cm
rain mn
cm
humidity
%
barometer
mb
20260505084047 16 272 0.0 0.0 0.00 0.00 0.00 81 1004.8
20260505083543 16 272 0.0 0.0 0.00 0.00 0.00 82 1005.1
20260505083040 16 272 0.0 0.0 0.00 0.00 0.00 83 1005.1
20260505082536 16 272 0.0 0.0 0.00 0.00 0.00 83 1005.5
20260505082033 16 272 0.0 0.0 0.00 0.00 0.00 83 1005.5
20260505081529 16 272 0.0 0.0 0.00 0.00 0.00 83 1005.5
20260505081026 16 272 0.0 0.0 0.00 0.00 0.00 83 1005.5
20260505080522 16 272 0.0 0.0 0.00 0.00 0.00 83 1005.9
20260505080019 16 272 0.0 0.0 0.00 0.00 0.00 83 1005.5
20260505075515 16 272 0.0 0.0 0.00 0.00 0.00 83 1005.9
20260505075012 16 272 0.0 0.0 0.00 0.00 0.00 82 1005.9
20260505074510 16 272 0.0 0.0 0.00 0.00 0.00 83 1006.3
20260505074007 16 272 0.0 0.0 0.00 0.00 0.00 83 1006.3
20260505073504 16 272 0.0 0.0 0.00 0.00 0.00 82 1006.3
20260505073002 16 272 0.0 0.0 0.00 0.00 0.00 82 1006.3
20260505072457 16 272 0.0 0.0 0.00 0.00 0.00 81 1006.6
20260505071953 16 272 0.0 0.0 0.00 0.00 0.00 81 1006.6
20260505071449 16 272 0.0 0.0 0.00 0.00 0.00 80 1006.9
20260505070948 16 272 0.0 0.0 0.00 0.00 0.00 81 1006.6
20260505070444 16 273 0.0 0.0 0.00 0.00 0.00 81 1006.9
20260505065940 16 273 0.0 0.0 0.00 0.00 0.00 81 1006.9
20260505065437 16 273 0.0 0.0 0.00 0.00 0.00 81 1007.3
20260505064933 16 273 0.0 0.0 0.00 0.00 0.00 81 1006.9
20260505064430 16 273 0.0 0.0 0.00 0.00 0.00 81 1006.9
20260505063929 16 273 0.0 0.0 0.00 0.00 0.00 79 1006.9
20260505063425 16 273 0.0 0.0 0.00 0.00 0.00 78 1006.9
20260505062921 16 273 0.0 0.0 0.00 0.00 0.00 78 1006.6
20260505062419 17 273 0.0 0.0 0.00 0.00 0.00 77 1006.3
20260505061915 16 273 0.0 0.0 0.00 0.00 0.00 78 1006.3
20260505061414 16 273 0.0 0.0 0.00 0.00 0.00 77 1006.3
20260505060911 16 273 0.0 0.0 0.00 0.00 0.00 79 1006.3
20260505060408 16 273 0.0 0.0 0.00 0.00 0.00 80 1005.9
20260505055904 16 273 0.0 0.0 0.00 0.00 0.00 82 1005.9
20260505055400 15 273 0.0 0.0 0.00 0.00 0.00 83 1005.9
20260505054857 15 273 0.0 0.0 0.00 0.00 0.00 83 1005.9
20260505054354 15 273 0.0 0.0 0.00 0.00 0.00 83 1006.3
20260505053852 15 273 0.0 0.0 0.00 0.00 0.00 84 1006.6
20260505053349 15 273 0.0 0.0 0.00 0.00 0.00 83 1006.3
20260505052846 16 273 0.0 0.0 0.00 0.00 0.00 83 1006.3
20260505052343 16 273 0.0 0.0 0.00 0.00 0.00 81 1005.9
20260505051840 16 273 0.0 0.0 0.00 0.00 0.00 80 1006.3
20260505051337 16 273 0.0 0.0 0.00 0.00 0.00 79 1006.3
20260505050835 16 273 0.0 0.0 0.00 0.00 0.00 79 1006.6
20260505050334 16 273 0.0 0.0 0.00 0.00 0.00 78 1006.6
20260505041300 20 273 1.6 1.6 0.00 0.00 0.00 64 1006.9
20260505040758 20 273 0.0 0.0 0.00 0.00 0.00 63 1006.9
20260505040255 20 272 0.0 0.0 0.00 0.00 0.00 63 1006.9
20260505035752 21 276 1.6 3.2 0.00 0.00 0.00 62 1006.6
20260505035247 21 300 0.0 0.0 0.00 0.00 0.00 59 1006.9
20260505034745 21 332 0.0 0.0 0.00 0.00 0.00 59 1006.6
20260505034241 21 323 1.6 1.6 0.00 0.00 0.00 58 1006.9
20260505033738 21 323 0.0 0.0 0.00 0.00 0.00 58 1006.9
20260505033236 21 334 1.6 1.6 0.00 0.00 0.00 60 1006.9
20260505032734 21 328 0.0 0.0 0.00 0.00 0.00 60 1006.9
20260505032229 20 295 1.6 1.6 0.00 0.00 0.00 59 1006.9
20260505031727 20 22 1.6 3.2 0.00 0.00 0.00 63 1006.6
20260505031223 19 330 0.0 0.0 0.00 0.00 0.00 66 1006.9
20260505030720 19 307 0.0 0.0 0.00 0.00 0.00 71 1006.9
20260505030216 19 307 0.0 0.0 0.00 0.00 0.00 72 1006.9
20260505025712 19 310 0.0 0.0 0.00 0.00 0.00 71 1006.9
20260505025211 19 310 0.0 0.0 0.00 0.00 0.00 71 1006.9
20260505024708 19 310 0.0 0.0 0.00 0.00 0.00 71 1006.9
20260505024205 19 310 0.0 0.0 0.00 0.00 0.00 71 1006.6
20260505023703 19 310 0.0 0.0 0.00 0.00 0.00 71 1006.9
20260505023200 19 310 0.0 0.0 0.00 0.00 0.00 70 1006.6
20260505022658 19 310 0.0 0.0 0.00 0.00 0.00 70 1006.3
20260505022154 19 310 0.0 0.0 0.00 0.00 0.00 70 1006.3
20260505021651 19 310 0.0 0.0 0.00 0.00 0.00 70 1006.3
20260505021148 19 310 0.0 0.0 0.00 0.00 0.00 70 1006.3
20260505020643 19 310 0.0 0.0 0.00 0.00 0.00 70 1006.3
20260505020139 19 310 0.0 0.0 0.00 0.00 0.00 69 1005.9
20260505015637 20 310 0.0 0.0 0.00 0.00 0.00 68 1005.9
20260505015133 20 310 0.0 0.0 0.00 0.00 0.00 67 1005.5
20260505014630 20 310 0.0 0.0 0.00 0.00 0.00 66 1005.9
20260505014127 20 310 0.0 0.0 0.00 0.00 0.00 67 1005.5
20260505013625 20 313 0.0 0.0 0.00 0.00 0.00 66 1005.1
20260505013121 20 321 0.0 0.0 0.00 0.00 0.00 65 1005.5
20260505012615 20 321 0.0 0.0 0.00 0.00 0.00 64 1005.5
20260505012111 21 321 0.0 0.0 0.00 0.00 0.00 62 1005.5
20260505011607 21 321 0.0 0.0 0.00 0.00 0.00 62 1005.1
20260505011104 21 321 0.0 0.0 0.00 0.00 0.00 61 1005.5
20260505010559 22 321 0.0 0.0 0.00 0.00 0.00 57 1005.1
20260505010056 22 322 0.0 0.0 0.00 0.00 0.00 56 1005.1
20260505005552 23 322 0.0 0.0 0.00 0.00 0.00 53 1004.8
20260505005050 23 322 0.0 0.0 0.00 0.00 0.00 52 1004.8
20260505004546 23 322 0.0 0.0 0.00 0.00 0.00 50 1004.8
20260505004043 24 325 0.0 0.0 0.00 0.00 0.00 50 1004.8
20260505003541 24 347 0.0 1.6 0.00 0.00 0.00 48 1004.8
20260505003038 24 305 0.0 0.0 0.00 0.00 0.00 49 1004.8
20260505002537 25 303 0.0 0.0 0.00 0.00 0.00 49 1004.8
20260505002032 25 86 8.0 9.7 0.00 0.00 0.00 46 1004.8
20260505001529 25 282 0.0 0.0 0.00 0.00 0.00 47 1004.8
20260505001026 25 290 0.0 0.0 0.00 0.00 0.00 47 1005.1
20260505000523 25 297 0.0 0.0 0.00 0.00 0.00 46 1005.1
20260505000021 25 304 0.0 1.6 0.00 0.00 0.00 45 1004.8
20260504235517 25 284 0.0 0.0 0.00 0.00 0.00 45 1005.1
20260504235014 26 277 0.0 0.0 0.00 0.00 0.00 44 1004.8
20260504234511 26 277 0.0 0.0 0.00 0.00 0.00 45 1005.1
20260504234008 26 318 1.6 1.6 0.00 0.00 0.00 44 1005.5
20260504233503 26 299 1.6 1.6 0.00 0.00 0.00 45 1004.8
20260504233000 26 24 0.0 1.6 0.00 0.00 0.00 43 1005.1
20260504232457 26 301 0.0 0.0 0.00 0.00 0.00 44 1005.1
20260504231954 26 288 0.0 0.0 0.00 0.00 0.00 44 1005.1
20260504231450 26 306 0.0 0.0 0.00 0.00 0.00 43 1005.1
20260504230947 26 248 3.2 3.2 0.00 0.00 0.00 43 1005.1
20260504230444 26 288 1.6 1.6 0.00 0.00 0.00 42 1005.5
20260504225943 26 247 0.0 1.6 0.00 0.00 0.00 42 1005.1
20260504225439 26 152 4.8 4.8 0.00 0.00 0.00 42 1005.5
20260504224936 26 244 3.2 3.2 0.00 0.00 0.00 42 1005.1
20260504224433 26 21 1.6 1.6 0.00 0.00 0.00 42 1005.1
20260504223930 26 184 4.8 4.8 0.00 0.00 0.00 42 1005.5
20260504223426 26 249 3.2 4.8 0.00 0.00 0.00 41 1005.5
20260504222922 26 281 1.6 1.6 0.00 0.00 0.00 41 1005.5
20260504222420 27 270 1.6 1.6 0.00 0.00 0.00 41 1005.5
20260504221917 27 175 3.2 8.0 0.00 0.00 0.00 40 1005.1
20260504221414 27 248 1.6 1.6 0.00 0.00 0.00 40 1005.5
20260504220911 27 164 3.2 3.2 0.00 0.00 0.00 40 1005.1
20260504220408 27 286 0.0 1.6 0.00 0.00 0.00 39 1005.5
20260504215905 27 235 3.2 4.8 0.00 0.00 0.00 40 1005.5
20260504215401 27 267 3.2 4.8 0.00 0.00 0.00 38 1005.5
20260504214857 27 162 6.4 9.7 0.00 0.00 0.00 37 1005.1
20260504214354 27 277 4.8 4.8 0.00 0.00 0.00 38 1005.5
20260504213851 27 183 4.8 4.8 0.00 0.00 0.00 37 1005.9
20260504213347 28 154 3.2 4.8 0.00 0.00 0.00 37 1005.5
20260504212844 28 153 6.4 9.7 0.00 0.00 0.00 36 1005.5
20260504212340 28 154 4.8 4.8 0.00 0.00 0.00 37 1005.5
20260504211838 28 141 8.0 11.3 0.00 0.00 0.00 37 1005.5
20260504211334 28 262 3.2 3.2 0.00 0.00 0.00 38 1005.5
20260504210832 28 178 11.3 16.1 0.00 0.00 0.00 36 1005.9
20260504210329 28 163 6.4 8.0 0.00 0.00 0.00 37 1005.5
20260504205826 28 169 8.0 9.7 0.00 0.00 0.00 36 1005.9
20260504205323 28 27 3.2 3.2 0.00 0.00 0.00 37 1005.5
20260504204821 28 188 4.8 4.8 0.00 0.00 0.00 36 1005.9
20260504204320 28 243 8.0 11.3 0.00 0.00 0.00 36 1005.9
20260504203819 28 189 8.0 9.7 0.00 0.00 0.00 37 1005.9
20260504203315 28 300 1.6 1.6 0.00 0.00 0.00 36 1006.3
20260504202810 28 175 3.2 4.8 0.00 0.00 0.00 36 1006.3
20260504202308 28 136 4.8 11.3 0.00 0.00 0.00 36 1006.3
20260504201805 28 34 3.2 4.8 0.00 0.00 0.00 35 1006.3
20260504201302 28 165 8.0 11.3 0.00 0.00 0.00 36 1005.9
20260504200800 28 224 3.2 3.2 0.00 0.00 0.00 37 1005.9
20260504200256 28 193 4.8 9.7 0.00 0.00 0.00 36 1006.3
20260504195752 28 239 4.8 8.0 0.00 0.00 0.00 37 1006.3
20260504195248 28 297 6.4 9.7 0.00 0.00 0.00 36 1006.6
20260504194745 28 109 3.2 4.8 0.00 0.00 0.00 38 1005.9
20260504194241 28 233 1.6 3.2 0.00 0.00 0.00 36 1006.3
20260504193738 28 148 9.7 16.1 0.00 0.00 0.00 37 1006.3
20260504193235 28 155 4.8 9.7 0.00 0.00 0.00 36 1006.3
20260504192733 28 268 1.6 1.6 0.00 0.00 0.00 40 1006.3
20260504192231 28 209 16.1 20.9 0.00 0.00 0.00 36 1006.6
20260504191730 28 169 4.8 4.8 0.00 0.00 0.00 38 1006.6
20260504191226 27 177 9.7 14.5 0.00 0.00 0.00 39 1006.3
20260504190721 27 219 3.2 4.8 0.00 0.00 0.00 39 1006.6
20260504190218 27 182 9.7 11.3 0.00 0.00 0.00 39 1006.6
20260504185715 27 206 3.2 4.8 0.00 0.00 0.00 39 1006.9
20260504185212 27 177 6.4 8.0 0.00 0.00 0.00 41 1006.9
20260504184708 28 214 4.8 4.8 0.00 0.00 0.00 39 1006.9
20260504184203 28 345 0.0 0.0 0.00 0.00 0.00 38 1006.9
20260504183700 28 354 1.6 1.6 0.00 0.00 0.00 38 1006.9
20260504183157 27 265 0.0 1.6 0.00 0.00 0.00 40 1006.9
20260504182655 27 202 3.2 3.2 0.00 0.00 0.00 40 1007.3
20260504182152 26 242 3.2 3.2 0.00 0.00 0.00 41 1006.9
20260504181649 26 302 1.6 1.6 0.00 0.00 0.00 41 1007.3
20260504181147 27 202 11.3 16.1 0.00 0.00 0.00 40 1007.6
20260504180646 26 113 3.2 3.2 0.00 0.00 0.00 40 1007.3
20260504180144 26 174 6.4 4.8 0.00 0.00 0.00 40 1007.3
20260504175641 27 269 1.6 1.6 0.00 0.00 0.00 39 1007.3
20260504175137 27 216 4.8 3.2 0.00 0.00 0.00 38 1007.3
20260504174636 27 185 11.3 16.1 0.00 0.00 0.00 36 1007.6
20260504174132 28 159 8.0 12.9 0.00 0.00 0.00 38 1007.3
20260504173629 27 27 4.8 4.8 0.00 0.00 0.00 38 1006.9
20260504173127 27 174 3.2 3.2 0.00 0.00 0.00 37 1007.3
20260504172623 27 151 4.8 8.0 0.00 0.00 0.00 38 1007.3
20260504172120 27 183 11.3 12.9 0.00 0.00 0.00 38 1006.9
20260504171616 27 122 4.8 4.8 0.00 0.00 0.00 37 1006.9
20260504171114 27 36 3.2 3.2 0.00 0.00 0.00 39 1007.3
20260504170609 27 154 6.4 9.7 0.00 0.00 0.00 38 1007.3
20260504170107 27 245 4.8 4.8 0.00 0.00 0.00 38 1007.3
20260504150952 23 178 12.9 14.5 0.00 0.00 0.00 41 1008.0
20260504150449 23 166 8.0 12.9 0.00 0.00 0.00 43 1008.0
20260504140915 22 119 4.8 11.3 0.00 0.00 0.00 45 1009.0
20260504140411 22 164 6.4 8.0 0.00 0.00 0.00 46 1009.0
20260504130337 19 230 1.6 1.6 0.00 0.00 0.00 53 1009.3
20260504120300 15 308 0.0 0.0 0.00 0.00 0.00 76 1009.3
20260504110224 13 279 0.0 0.0 0.00 0.00 0.00 75 1009.6
20260504100148 13 279 0.0 0.0 0.00 0.00 0.00 79 1010.1
20260504090110 15 290 0.0 0.0 0.00 0.00 0.00 69 1010.1